Davenport, IA

9:14 PM CDT on June 28, 2017 (GMT -0500)
Davenport Municipal

Weather History for KDVN - April, 2013

Change the Weather History Date:

Thursday, April 25, 2013

  Actual Average Record
Temperature  
Mean Temperature 44 °F 54 °F  
Max Temperature 54 °F 65 °F 83 °F (1948)
Min Temperature 33 °F 42 °F 30 °F (1997)
Degree Days  
Heating Degree Days 21 12  
Month to date heating degree days 501 393  
Since 1 July heating degree days 6355 6251  
Cooling Degree Days 0 0  
Month to date cooling degree days 0 0  
Year to date cooling degree days 0 0  
Moisture  
Dew Point 28 °F    
Average Humidity 59    
Maximum Humidity 92    
Minimum Humidity 26    
Precipitation  
Precipitation T in 0.12 in 1.72 in (2007)
Month to date precipitation 6.75 2.69  
Year to date precipitation 12.45 7.74  
Snow  
Snow 0.00 in - - ()
Month to date snowfall T  
Since 1 July snowfall 27.1  
Snow Depth 0.00 in    
Sea Level Pressure  
Sea Level Pressure 30.24 in    
Wind  
Wind Speed 13 mph (West)    
Max Wind Speed 26 mph    
Max Gust Speed 33 mph    
Visibility 10 miles    
Events      
T = Trace of Precipitation, MM = Missing Value Source: NWS Daily Summary

Daily Weather History Graph

Daily Weather History Graph

Search for Another Location

Airport or City:

Trip Planner

Search our weather history database for the weather conditions in past years. The results will help you decide how hot, cold, wet, or windy it might be!

Date:

Astronomy

Apr. 25, 2013 Rise Set
Actual Time 6:07 AM CDT 7:54 PM CDT
Civil Twilight 5:37 AM CDT 8:23 PM CDT
Nautical Twilight 5:01 AM CDT 9:00 PM CDT
Astronomical Twilight 4:22 AM CDT 9:39 PM CDT
Moon 8:07 PM CDT (4/25) 5:50 AM CDT (4/25)
Length of Visible Light 14h 46m
Length of Day
13h 47m
Full, 100% of the Moon is Illuminated
Apr 25
Full
Apr 25
Full
May 2
Last Quarter
May 9
New
May 17
First Quarter

Hourly Weather History & Observations

Time (CDT) Temp. Windchill Dew Point Humidity Pressure Visibility Wind Dir Wind Speed Gust Speed Precip Events Conditions
12:52 AM 45.0 °F 37.6 °F 30.9 °F 58% 30.10 in 10.0 mi West 17.3 mph 29.9 mph 0.00 in   Overcast
1:52 AM 41.0 °F 33.5 °F 36.0 °F 82% 30.10 in 10.0 mi West 13.8 mph - 0.00 in   Overcast
2:52 AM 39.9 °F 31.8 °F 37.0 °F 89% 30.10 in 10.0 mi WSW 15.0 mph - N/A   Partly Cloudy
3:52 AM 41.0 °F 32.5 °F 37.0 °F 86% 30.12 in 10.0 mi West 17.3 mph - 0.00 in   Mostly Cloudy
4:52 AM 37.0 °F 26.7 °F 32.0 °F 82% 30.15 in 10.0 mi West 19.6 mph - 0.00 in   Clear
5:52 AM 34.0 °F 23.8 °F 26.1 °F 73% 30.17 in 10.0 mi WNW 16.1 mph - N/A   Clear
6:52 AM 34.0 °F 24.2 °F 28.0 °F 79% 30.20 in 10.0 mi WNW 15.0 mph - N/A   Clear
7:52 AM 37.0 °F 27.7 °F 28.0 °F 70% 30.23 in 10.0 mi WNW 16.1 mph - N/A   Clear
8:52 AM 39.0 °F 28.5 °F 28.0 °F 65% 30.25 in 10.0 mi WNW 23.0 mph 28.8 mph N/A   Clear
9:52 AM 42.1 °F 33.9 °F 28.9 °F 60% 30.27 in 10.0 mi NW 17.3 mph 28.8 mph N/A   Partly Cloudy
10:52 AM 44.1 °F 35.9 °F 28.0 °F 53% 30.29 in 10.0 mi WNW 19.6 mph 26.5 mph N/A   Clear
11:52 AM 46.0 °F 39.3 °F 27.0 °F 47% 30.30 in 10.0 mi WNW 16.1 mph 25.3 mph N/A   Clear
12:52 PM 48.0 °F - 23.0 °F 37% 30.30 in 10.0 mi WNW 16.1 mph 26.5 mph N/A   Clear
1:52 PM 50.0 °F - 24.1 °F 36% 30.30 in 10.0 mi WNW 13.8 mph 26.5 mph N/A   Clear
2:52 PM 51.1 °F - 24.1 °F 35% 30.30 in 10.0 mi West 16.1 mph - N/A   Clear
3:52 PM 52.0 °F - 19.9 °F 28% 30.30 in 10.0 mi West 10.4 mph 20.7 mph N/A   Clear
4:52 PM 53.1 °F - 19.0 °F 26% 30.28 in 10.0 mi WSW 8.1 mph - N/A   Clear
5:52 PM 54.0 °F - 21.9 °F 29% 30.29 in 10.0 mi West 13.8 mph - N/A   Clear
6:52 PM 53.1 °F - 24.1 °F 32% 30.28 in 10.0 mi West 6.9 mph - N/A   Clear
7:52 PM 50.0 °F - 27.0 °F 41% 30.26 in 10.0 mi SSW 3.5 mph - N/A   Clear
8:52 PM 44.1 °F 40.8 °F 28.9 °F 55% 30.28 in 10.0 mi South 5.8 mph - N/A   Clear
9:52 PM 43.0 °F 39.5 °F 27.0 °F 53% 30.29 in 10.0 mi SE 5.8 mph - N/A   Clear
10:52 PM 42.1 °F - 28.0 °F 58% 30.28 in 10.0 mi North - - N/A   Clear
11:52 PM 39.9 °F 34.5 °F 28.9 °F 65% 30.29 in 10.0 mi SE 8.1 mph - N/A   Clear